Temperature
7 6 6 7 7 8 7 7 8 8 9 9 8 8 8 9 9 9 9 10 11 12 12 12 12 13 13 12 12 12 12 12 12 12 12 12 12 12 12 11 11 11 11 11
6 6 7 7 7 7 7 7 7 8 9 9 8 8 8 7 8 9 9 10 11 11 12 12 12 12 12 12 12 12 12 12 12 12 12 12 12 11 11 11 11 11 11 11
6 6 7 7 7 7 7 6 7 7 8 8 8 8 7 8 8 8 9 10 10 11 11 12 12 12 12 12 12 12 12 12 11 11 11 11 11 11 11 11 10 10 10 10
6 6 6 6 6 7 7 7 7 7 7 6 7 6 7 6 6 6 7 8 9 10 11 11 11 12 12 12 12 12 11 11 11 11 11 11 11 11 11 10 10 10 10 10
5 6 6 6 6 7 6 7 7 6 6 5 6 5 6 6 6 6 6 7 9 9 10 11 11 11 12 12 12 11 11 11 11 11 11 10 10 10 10 10 9 9 9 9
5 5 6 6 6 7 6 6 5 5 5 5 5 5 5 5 6 6 6 7 8 9 10 10 11 11 11 11 11 11 11 11 10 10 10 10 10 10 9 9 9 9 9 9
4 5 5 6 5 6 6 5 4 4 4 4 5 5 5 6 5 5 5 6 7 8 8 9 10 10 10 11 11 10 10 10 10 10 10 9 9 9 9 9 8 8 8 8
3 3 4 5 5 5 5 5 4 4 4 4 4 4 5 5 5 5 5 6 6 7 7 8 9 9 10 10 10 10 10 10 10 9 9 9 9 8 8 8 8 8 7 7
2 3 4 5 5 5 4 4 4 3 3 3 4 4 4 5 4 4 4 4 5 5 6 7 8 8 9 9 9 9 9 9 9 9 9 8 8 8 8 7 7 7 7 7
3 2 3 4 5 4 4 4 3 3 3 4 4 4 5 5 4 3 3 3 4 5 5 6 7 7 8 8 8 8 8 8 8 8 8 7 7 7 7 7 7 7 6 6
2 2 2 3 3 3 3 3 3 2 3 3 4 4 4 4 3 3 2 3 3 4 5 5 6 6 7 7 7 7 7 7 7 7 7 7 7 7 6 6 6 6 6 6
1 1 1 2 2 3 3 3 2 3 2 2 2 4 4 2 3 2 2 3 3 3 4 4 5 5 6 6 7 7 7 7 7 6 6 6 6 6 6 6 6 5 5 5
1 0 1 1 2 2 2 2 2 1 1 1 2 4 3 2 2 2 2 2 2 3 3 4 4 5 5 5 6 6 6 6 6 6 6 6 6 5 5 5 5 5 5 5
1 -0 0 1 1 1 1 1 1 2 1 1 2 2 2 2 2 1 1 2 2 2 3 3 4 4 4 5 5 5 5 5 5 5 5 5 5 5 5 5 5 5 4 4
0 -1 -1 0 1 1 1 2 1 1 1 2 2 2 2 2 1 1 1 1 1 2 2 3 3 3 4 4 4 4 5 5 5 5 5 5 5 5 4 4 4 4 4 4
-1 -1 -1 -0 1 1 1 2 2 2 2 1 1 1 1 1 1 1 1 1 1 1 2 2 2 3 3 3 4 4 4 4 4 4 4 4 4 4 4 4 4 4 4 4
-2 -2 -1 -1 -0 1 0 1 1 1 1 1 1 1 0 0 0 0 0 1 1 1 2 2 2 2 3 3 3 3 3 3 3 3 3 3 3 3 3 3 3 3 3 3
-3 -3 -3 -1 -1 -0 0 0 1 1 0 0 0 0 -0 0 -0 0 1 1 1 1 1 2 2 2 2 2 2 3 3 3 3 3 3 3 3 3 3 3 3 3 3 3
-3 -3 -3 -3 -2 -1 -0 -0 -1 -1 -1 -1 -1 -1 -1 -0 -0 -1 0 0 1 1 1 1 1 2 2 2 2 2 2 2 2 2 2 2 2 2 2 2 2 2 2 2
-3 -3 -3 -3 -2 -1 -1 -1 -1 -0 -1 -1 -1 -1 -1 -1 -1 -1 -0 0 0 0 0 0 1 1 1 1 1 1 1 1 1 2 2 1 1 1 1 1 1 1 1 1
-3 -4 -4 -4 -3 -2 -2 -2 -1 -1 -1 -1 -1 -1 -1 -1 -1 -1 -1 -0 -0 -0 -0 -0 0 0 0 1 1 1 1 1 1 1 1 1 1 1 1 1 1 0 0 0
-4 -4 -4 -4 -3 -3 -3 -3 -2 -2 -2 -2 -2 -2 -2 -2 -2 -1 -1 -1 -1 -1 -1 -1 -0 -0 -0 -0 0 0 0 0 0 0 0 0 0 -0 -0 0 0 -0 -0 -0
-5 -5 -5 -4 -4 -4 -4 -3 -3 -2 -3 -2 -2 -2 -2 -2 -2 -2 -2 -2 -1 -1 -1 -1 -1 -1 -1 -1 -1 -1 -0 -0 -0 -0 -0 -0 -1 -1 -1 -1 -0 -1 -1 -1
-6 -5 -5 -5 -5 -4 -4 -3 -3 -3 -3 -2 -2 -2 -2 -3 -3 -2 -2 -2 -2 -2 -2 -2 -1 -1 -1 -1 -1 -1 -1 -1 -1 -1 -1 -1 -1 -1 -1 -1 -1 -1 -1 -1
-6 -6 -5 -5 -5 -4 -4 -4 -3 -3 -3 -3 -3 -3 -3 -3 -3 -3 -3 -3 -2 -2 -2 -2 -2 -2 -2 -2 -2 -2 -2 -2 -1 -1 -1 -1 -1 -1 -1 -1 -2 -2 -2 -2
-7 -6 -6 -5 -5 -5 -5 -4 -4 -3 -3 -3 -3 -3 -3 -3 -3 -3 -3 -3 -3 -3 -3 -3 -3 -3 -3 -3 -2 -2 -2 -2 -2 -2 -2 -2 -2 -2 -2 -2 -2 -3 -3 -3
Wind_Speed
4 5 11 13 11 4 7 6 5 5 3 4 7 9 9 5 4 5 6 6 7 8 6 4 5 6 6 6 7 7 7 6 5 3 3 2 1 1 0 0 1 2 3 3
4 9 9 6 6 5 5 5 5 1 1 3 4 8 7 6 6 7 7 8 8 6 4 4 5 5 7 8 8 8 7 7 6 4 3 2 2 1 1 0 1 1 1 2
9 4 7 7 7 7 6 7 6 4 1 2 1 7 5 5 4 3 4 5 6 7 7 6 6 6 7 8 9 9 8 7 6 5 4 3 3 2 1 0 1 1 0 1
5 3 6 8 7 7 7 6 6 5 3 2 2 4 6 4 4 4 5 5 6 6 5 5 6 7 8 8 8 8 8 7 6 7 6 6 4 3 3 2 1 1 1 0
5 5 7 8 7 7 4 5 5 4 4 1 1 3 8 2 5 6 6 5 5 5 5 6 7 8 7 6 7 7 7 6 6 7 7 6 4 2 1 1 1 0 1 1
1 1 4 5 4 7 6 6 6 4 3 4 7 6 7 4 6 5 5 4 4 3 3 4 4 4 4 4 5 6 7 6 6 6 6 6 6 4 3 2 1 0 1 1
0 0 0 3 5 5 6 6 3 1 2 7 4 6 8 6 5 5 5 5 3 2 2 2 3 4 5 5 5 6 7 6 5 5 5 5 6 5 5 3 2 1 1 1
4 3 2 2 4 6 7 8 7 7 6 3 3 7 7 4 3 2 2 1 1 1 1 2 3 4 5 5 5 6 7 5 5 5 4 4 4 3 3 3 3 2 2 2
5 2 1 1 2 7 7 5 4 5 2 2 5 5 6 1 2 2 2 3 3 2 2 2 2 2 3 4 4 6 6 5 4 4 4 3 3 3 3 2 2 1 1 1
4 3 0 1 3 3 4 6 5 5 5 4 4 5 4 3 2 1 1 1 2 3 3 3 3 2 2 3 3 4 4 4 4 3 3 3 3 2 2 2 1 1 1 1
2 4 1 2 3 4 4 3 3 4 4 5 3 5 2 3 3 2 1 1 2 2 2 3 3 3 3 4 4 4 4 4 3 3 2 3 2 2 2 1 1 1 1 1
2 3 2 1 2 1 3 5 5 5 3 3 3 5 3 1 1 2 2 2 3 3 3 4 4 4 4 4 4 4 4 4 3 2 3 2 2 2 2 1 0 1 1 1
3 4 3 2 2 1 1 2 3 4 3 4 4 5 3 3 3 3 3 3 3 4 4 5 5 4 4 4 4 4 3 3 3 3 3 3 2 2 1 0 1 1 1 2
3 3 4 7 5 4 2 2 3 4 3 4 6 5 4 2 1 2 2 3 4 4 4 4 4 3 3 3 3 4 3 3 3 3 3 2 1 1 0 1 1 1 1 2
3 2 1 1 1 2 2 4 5 5 6 6 6 5 6 3 2 1 2 3 4 4 4 3 3 3 3 3 3 3 3 3 3 3 3 2 1 1 1 1 1 1 1 2
3 2 1 1 1 1 1 3 4 5 4 4 4 6 3 1 2 2 3 4 4 3 2 2 3 3 2 2 2 2 2 2 3 3 2 2 2 2 2 1 1 1 2 2
2 3 2 1 0 2 3 4 5 3 3 5 7 5 2 1 3 3 3 3 3 3 2 2 1 1 1 1 1 2 2 2 3 3 2 3 2 2 2 2 2 2 2 2
3 3 2 2 3 3 4 1 2 3 2 3 2 2 3 3 2 1 1 3 3 3 2 2 2 2 2 2 2 2 3 3 3 3 3 3 2 2 2 2 2 2 2 2
2 4 3 2 2 3 4 2 1 2 2 2 3 3 3 4 4 3 2 2 3 2 2 2 2 2 2 3 2 3 3 3 3 3 3 3 2 2 3 3 3 2 2 2
3 3 3 2 3 4 3 3 2 2 2 2 3 4 4 3 2 2 0 3 3 3 3 3 3 3 3 3 3 3 3 3 3 3 3 3 2 2 3 3 3 2 2 2
2 2 2 2 2 4 4 5 0 3 4 3 0 2 2 1 2 2 2 2 3 3 3 3 3 3 2 2 3 3 3 3 3 3 3 3 3 2 3 3 2 2 2 2
1 2 1 2 2 4 5 2 2 3 2 3 2 1 2 2 3 3 3 3 3 3 3 3 2 2 3 2 2 2 3 3 4 3 3 3 3 3 3 3 3 2 2 2
1 2 2 3 3 2 2 1 2 1 1 2 2 2 2 2 2 2 2 2 2 2 2 2 1 2 2 2 2 1 3 4 3 3 4 3 4 3 3 2 2 2 1 1
3 1 1 1 2 3 3 3 4 3 2 2 1 1 2 2 1 1 1 1 1 2 2 2 2 2 3 3 2 2 3 3 2 3 3 3 3 3 3 2 2 2 2 2
3 1 0 1 3 3 4 4 3 4 4 4 4 2 2 2 1 1 1 1 1 2 2 2 1 2 3 3 3 4 3 3 3 3 3 3 3 3 3 3 2 3 3 2
1 1 1 2 2 2 3 4 4 3 4 3 3 4 3 2 1 1 1 1 1 1 2 2 2 2 3 3 4 4 4 2 2 3 3 2 2 2 2 2 3 4 3 4
Wind_Direction
163 168 198 201 195 170 156 164 191 210 197 179 219 244 255 257 224 230 232 227 223 224 226 200 186 173 163 161 164 165 158 154 144 135 137 135 147 146 83 149 166 170 168 163
149 215 204 163 163 165 163 171 188 221 147 187 237 261 258 246 225 218 217 223 224 223 217 198 181 170 173 177 176 171 169 166 165 163 153 146 147 157 174 113 97 138 169 176
189 196 165 162 169 182 198 188 185 176 51 39 313 291 262 256 234 235 228 224 223 213 211 200 186 183 179 182 183 181 177 170 165 149 123 99 84 71 69 11 316 312 235 205
207 192 155 167 186 174 217 192 169 156 135 260 166 268 276 256 262 249 245 237 235 229 216 203 190 187 190 192 184 178 173 166 161 153 152 151 159 181 205 206 238 296 299 279
201 170 165 186 191 165 175 146 147 151 150 237 207 221 278 268 250 251 246 241 243 234 214 205 198 193 191 185 176 172 164 161 159 161 163 160 159 166 160 153 152 330 340 344
161 178 174 180 150 150 129 92 75 68 109 234 211 195 268 230 224 249 250 247 251 244 219 203 190 165 157 156 158 157 155 158 160 160 160 161 160 158 152 153 169 264 321 325
54 2 147 130 122 137 133 122 110 142 207 238 193 198 248 246 235 230 243 247 251 237 187 157 150 153 151 152 156 155 155 156 159 158 162 165 165 166 173 179 187 205 265 289
158 214 205 167 160 165 172 157 166 185 202 243 188 221 250 262 283 265 233 168 69 56 107 138 150 155 158 155 152 154 157 155 158 159 160 154 155 163 176 183 187 200 224 251
162 205 31 131 127 138 153 182 151 131 124 178 234 269 295 306 355 20 61 70 64 60 74 95 102 108 128 138 149 155 153 148 152 152 142 142 150 160 167 171 170 195 229 248
144 155 344 10 82 43 145 143 125 144 162 213 249 249 244 258 289 346 42 57 49 51 61 67 73 74 85 105 111 116 128 137 139 135 143 143 151 158 158 149 161 209 256 264
106 134 25 84 158 163 117 134 143 148 164 169 214 257 249 238 233 213 190 112 79 68 71 67 60 59 71 79 91 100 107 110 114 120 121 120 124 121 121 129 187 235 263 265
114 119 138 255 292 192 148 160 151 164 200 179 181 260 328 292 242 133 101 77 70 67 64 64 63 61 68 72 76 85 95 99 106 111 108 108 105 100 99 104 283 287 287 285
130 121 105 30 354 32 123 152 149 128 128 169 188 253 350 33 43 60 87 81 77 75 72 68 65 62 65 68 69 72 77 86 87 95 97 90 86 91 88 345 318 314 300 297
107 121 169 189 203 174 181 177 157 142 174 206 222 247 302 357 22 40 78 94 91 86 83 78 69 58 58 62 66 67 58 65 78 83 83 79 72 71 21 334 330 318 303 295
88 129 160 218 205 161 196 201 188 194 197 203 229 236 259 257 222 163 131 111 98 87 80 79 77 65 56 54 56 63 55 54 70 74 63 45 38 44 33 4 334 323 316 312
72 126 115 12 63 139 241 223 205 212 205 212 236 265 264 210 109 116 129 125 117 104 83 69 61 64 60 56 61 61 50 42 62 66 48 33 33 34 20 355 345 340 334 330
68 110 106 244 359 75 258 241 207 197 202 189 223 233 172 134 155 165 164 154 148 137 109 84 68 65 59 58 74 73 50 47 57 53 37 30 31 27 4 357 6 346 333 339
141 121 125 133 99 204 251 298 182 180 234 220 204 181 178 175 154 104 135 153 146 133 115 88 71 48 30 40 49 55 52 49 51 43 25 19 29 20 6 3 353 339 337 337
150 139 121 131 167 263 299 322 121 165 280 255 192 183 156 119 82 31 25 122 134 123 103 81 57 54 44 40 47 61 45 38 39 22 5 356 8 3 357 352 339 331 340 336
60 108 123 128 153 222 261 310 303 118 286 297 185 182 157 127 151 246 71 101 97 84 77 67 51 50 47 29 46 62 39 29 12 351 340 340 352 347 333 322 314 313 316 313
39 56 127 153 194 260 296 302 15 155 245 320 274 180 161 198 208 153 111 82 89 84 72 62 53 45 24 21 49 51 32 1 338 338 341 346 345 333 320 316 308 307 313 322
155 143 165 147 182 257 326 24 149 231 309 352 6 57 106 85 78 84 85 83 77 71 61 54 49 20 8 26 47 32 357 334 338 343 346 346 346 341 337 332 321 319 325 334
166 195 186 186 210 277 316 270 300 292 323 335 346 6 89 99 83 66 61 73 71 69 52 40 52 14 4 15 32 5 326 333 341 346 343 341 341 337 333 328 324 323 331 332
327 332 165 242 291 301 333 340 355 6 347 344 8 49 86 102 95 64 54 47 47 40 25 22 36 13 349 353 356 327 319 329 333 328 323 324 326 325 330 326 317 312 307 301
297 320 28 278 299 328 356 0 355 14 21 24 29 42 85 110 96 65 13 2 9 10 359 9 13 345 330 337 338 334 333 334 331 322 317 320 320 315 322 321 308 301 278 271
315 228 211 251 289 279 304 333 356 18 15 19 33 35 40 67 77 39 22 4 358 353 356 353 345 336 331 334 330 328 325 317 310 315 318 315 312 310 310 316 324 324 312 324
Height
1446 1451 1451 1452 1454 1457 1461 1465 1467 1467 1465 1467 1469 1468 1466 1465 1467 1467 1468 1470 1471 1473 1476 1479 1481 1484 1487 1490 1493 1496 1499 1501 1504 1506 1508 1510 1512 1513 1515 1516 1517 1518 1519 1519
1448 1448 1447 1451 1454 1457 1460 1464 1466 1466 1465 1466 1468 1467 1464 1463 1463 1463 1465 1466 1468 1470 1472 1475 1478 1480 1483 1486 1489 1492 1495 1498 1501 1503 1505 1507 1509 1511 1512 1513 1514 1515 1516 1516
1443 1445 1446 1450 1454 1457 1460 1463 1465 1466 1466 1467 1468 1466 1463 1460 1459 1460 1461 1462 1464 1466 1468 1471 1473 1476 1479 1482 1485 1488 1491 1495 1498 1500 1503 1504 1506 1507 1509 1510 1511 1512 1512 1513
1443 1443 1445 1448 1452 1455 1459 1459 1462 1465 1470 1475 1472 1476 1464 1460 1459 1458 1458 1458 1460 1462 1464 1466 1469 1472 1475 1478 1482 1485 1488 1491 1494 1497 1499 1501 1502 1503 1505 1506 1508 1509 1510 1510
1441 1442 1444 1447 1449 1452 1457 1458 1462 1466 1471 1476 1475 1478 1466 1461 1459 1456 1455 1455 1456 1458 1460 1462 1465 1468 1472 1475 1478 1481 1485 1488 1491 1493 1496 1498 1499 1501 1502 1504 1505 1506 1506 1507
1442 1442 1443 1445 1448 1451 1455 1460 1466 1471 1474 1478 1474 1477 1466 1462 1455 1453 1452 1452 1453 1455 1456 1459 1462 1465 1468 1471 1475 1478 1481 1484 1487 1490 1492 1494 1496 1497 1499 1500 1501 1502 1503 1503
1444 1444 1443 1444 1449 1452 1454 1463 1475 1478 1482 1478 1471 1471 1462 1453 1451 1450 1450 1450 1450 1452 1453 1455 1458 1461 1465 1468 1471 1475 1478 1481 1484 1487 1489 1491 1493 1494 1496 1497 1498 1499 1499 1500
1447 1449 1445 1444 1446 1450 1453 1457 1469 1475 1478 1477 1471 1469 1458 1451 1449 1448 1448 1448 1449 1450 1451 1453 1456 1459 1462 1465 1468 1471 1475 1478 1481 1484 1486 1488 1490 1492 1493 1494 1495 1496 1496 1497
1447 1448 1444 1444 1444 1448 1454 1457 1459 1471 1477 1477 1471 1465 1457 1449 1449 1448 1448 1448 1448 1450 1451 1453 1455 1458 1460 1463 1466 1469 1472 1475 1478 1481 1483 1485 1487 1489 1490 1491 1492 1493 1493 1493
1442 1449 1446 1445 1445 1448 1450 1454 1462 1468 1473 1470 1466 1465 1457 1451 1451 1450 1450 1450 1450 1450 1451 1453 1455 1457 1459 1462 1465 1468 1471 1473 1476 1478 1481 1482 1484 1486 1487 1488 1489 1489 1490 1490
1442 1449 1451 1448 1449 1451 1454 1457 1459 1465 1467 1470 1469 1462 1452 1451 1450 1451 1450 1450 1451 1451 1452 1453 1455 1457 1459 1461 1464 1467 1469 1472 1474 1476 1478 1480 1482 1483 1484 1485 1486 1486 1487 1487
1444 1449 1455 1453 1451 1450 1451 1454 1459 1463 1468 1470 1469 1464 1451 1451 1450 1450 1451 1452 1452 1453 1454 1455 1456 1457 1459 1461 1463 1466 1468 1470 1472 1475 1476 1478 1479 1480 1481 1482 1483 1483 1483 1483
1444 1450 1457 1457 1458 1454 1453 1455 1457 1461 1467 1470 1467 1461 1452 1451 1451 1451 1452 1453 1453 1454 1455 1456 1457 1458 1460 1462 1463 1465 1467 1469 1471 1473 1474 1475 1477 1478 1479 1479 1480 1480 1480 1480
1442 1450 1453 1454 1452 1454 1455 1455 1457 1458 1464 1467 1464 1458 1454 1453 1453 1454 1454 1454 1454 1456 1457 1457 1459 1460 1461 1462 1464 1465 1467 1468 1470 1471 1472 1473 1474 1475 1476 1477 1477 1477 1477 1476
1444 1451 1452 1451 1450 1451 1451 1452 1454 1456 1457 1460 1458 1458 1454 1454 1454 1454 1454 1454 1455 1456 1458 1458 1459 1460 1462 1463 1464 1465 1466 1467 1468 1469 1470 1471 1472 1473 1473 1474 1474 1474 1473 1473
1448 1452 1452 1453 1450 1450 1451 1450 1451 1452 1454 1455 1456 1456 1453 1453 1453 1454 1454 1455 1456 1457 1458 1459 1460 1460 1461 1462 1463 1464 1465 1466 1467 1468 1468 1469 1470 1470 1470 1470 1470 1470 1470 1469
1451 1454 1455 1456 1453 1451 1455 1451 1450 1450 1450 1451 1452 1452 1453 1453 1453 1454 1454 1454 1455 1457 1458 1459 1459 1460 1461 1462 1463 1464 1465 1465 1466 1466 1466 1467 1467 1468 1468 1467 1467 1467 1466 1466
1452 1456 1459 1458 1458 1461 1454 1449 1448 1449 1449 1449 1449 1450 1451 1452 1453 1453 1454 1454 1455 1456 1458 1459 1459 1460 1461 1462 1462 1463 1464 1464 1464 1464 1465 1465 1465 1465 1465 1464 1464 1464 1463 1462
1450 1454 1460 1462 1462 1458 1453 1450 1450 1451 1451 1449 1449 1449 1451 1451 1452 1454 1455 1455 1456 1456 1457 1458 1459 1460 1461 1461 1462 1462 1463 1463 1463 1463 1463 1463 1463 1462 1462 1462 1461 1460 1460 1459
1452 1454 1460 1463 1461 1459 1454 1451 1449 1451 1453 1449 1448 1448 1449 1450 1454 1455 1455 1455 1456 1457 1457 1458 1459 1459 1460 1461 1461 1461 1461 1461 1461 1461 1461 1461 1461 1460 1459 1459 1458 1458 1457 1456
1457 1459 1462 1463 1464 1459 1455 1451 1449 1456 1454 1450 1448 1448 1449 1450 1451 1453 1453 1454 1455 1456 1457 1458 1458 1458 1459 1460 1460 1460 1460 1460 1460 1460 1459 1459 1459 1458 1457 1457 1456 1455 1454 1454
1461 1462 1464 1464 1464 1462 1454 1451 1454 1453 1450 1449 1448 1448 1448 1449 1450 1451 1452 1453 1454 1455 1456 1457 1457 1458 1458 1458 1458 1458 1458 1458 1458 1458 1457 1457 1457 1456 1455 1454 1453 1453 1452 1451
1462 1462 1462 1463 1462 1458 1455 1453 1452 1451 1450 1449 1449 1449 1449 1450 1450 1451 1452 1453 1454 1455 1455 1456 1456 1456 1457 1457 1457 1457 1457 1457 1456 1456 1455 1455 1454 1454 1453 1452 1451 1450 1449 1448
1462 1460 1460 1460 1458 1456 1454 1453 1452 1451 1450 1450 1449 1449 1449 1449 1450 1451 1451 1452 1453 1454 1454 1454 1455 1455 1455 1455 1455 1455 1455 1454 1454 1453 1453 1452 1452 1451 1450 1450 1449 1448 1447 1445
1463 1461 1460 1460 1457 1455 1453 1453 1452 1451 1450 1450 1449 1449 1449 1449 1450 1450 1451 1451 1452 1452 1453 1453 1453 1453 1453 1453 1453 1453 1453 1452 1451 1451 1450 1450 1449 1448 1447 1446 1446 1445 1444 1443
1462 1462 1461 1459 1457 1457 1455 1454 1453 1451 1451 1450 1450 1449 1450 1450 1450 1450 1450 1450 1451 1451 1451 1452 1451 1451 1451 1451 1451 1451 1450 1449 1449 1448 1447 1446 1445 1445 1444 1443 1442 1442 1442 1441